Regional Weather Roundup
Issued by NWS

Home | Current Version | Previous Version | Text Only | Print | Product List | Glossary On
Versions: 1 2 3 4 5 6 7 8 9 10 11 12 13 14 15 16 17 18 19 20 21 22 23 24 25 26 27 28 29 30 31 32 33 34 35 36 37 38 39 40 41 42 43 44 45 46 47 48 49 50
000
ASHW40 PHFO 051943
RWRHI

WEATHER ROUNDUP FOR HAWAII
NATIONAL WEATHER SERVICE HONOLULU HI
900 AM HST TUE JUL 05 2022

THIS IS AN AUTOMATED REPORT THAT HAS NOT BEEN QUALITY CONTROLLED.

NOTE..."FAIR" INDICATES FEW OR NO CLOUDS BELOW 12,000 FEET WITH NO
SIGNIFICANT WEATHER AND/OR OBSTRUCTIONS TO VISIBILITY.

* - THESE SITES REPORT LIMITED FIELDS
# - BUOY DATA PROVIDED BY PACIFIC ISLANDS OCEAN OBSERVING SYSTEM.

HIZ001-003-004-029>031-052000-
KAUAI-NIIHAU-

CITY           SKY/WX    TMP DP  RH WIND       PRES   REMARKS
LIHUE APT      CLOUDY    81  68  64 NE16      30.16R
PORT ALLEN*    NOT AVBL
POIPU*         NOT AVBL
PRINCEVILLE*   NOT AVBL
KOKOLE POINT*  NOT AVBL
MOLOAA DAIRY*    N/A     79  70  73 E1G9        N/A
WAIMEA HTS*      N/A     88  59  37 NE6G16      N/A
PUU OPAE*        N/A     77  57  50 S3G12       N/A
PUU LUA*       NOT AVBL
MAKAHA RIDGE*    N/A     79  61  53 NE3         N/A
$$

HIZ006-007-009>011-032>036-052000-
OAHU-

CITY           SKY/WX    TMP DP  RH WIND       PRES   REMARKS
HONOLULU       PTSUNNY   78  67  68 E14G22    30.12S
KALAELOA       CLOUDY    81  67  62 VRB7      30.13F
KANEOHE MCB    CLOUDY   N/A N/A N/A NE14G23   30.12S HAZE
WHEELER FIELD  DRIZZLE   72  68  88 W3        30.15S
BELLOWS*       NOT AVBL
KAHUKU*        NOT AVBL
WHEELER*       NOT AVBL
WAIANAE HARBOR NOT AVBL
DILLINGHAM*      N/A     75  68  78 NE5G14      N/A
KAHUKU TRN*      N/A     72  68  88 E9G21       N/A
KAWAILOA*      NOT AVBL
KII*             N/A     73  70  88 NE18G26     N/A
MAKUA RANGE*     N/A     73  68  83 E8G18       N/A
OAHU FOREST NW NOT AVBL
SCHOFIELD BRK*   N/A     72  68  88 VRB3        N/A
SCHOFIELD S*   NOT AVBL
WAIANAE VLY*   NOT AVBL
KUAOKALA*      NOT AVBL
HONOULIUULI*   NOT AVBL
MOKUOLOE IS*     N/A     73 N/A N/A MISG        N/A
PALEHUA*       NOT AVBL
WAIAWA PHB*    NOT AVBL
$$

HIZ037>041-052000-
MOLOKAI-

CITY           SKY/WX    TMP DP  RH WIND       PRES   REMARKS
MOLOKAI AIRPT  PTSUNNY   75  69  81 N15G21    30.13S
KALAUPAPA      NOT AVBL
MAKAPULAPAI*     N/A     79  70  73 NE20G29     N/A
MOLOKAI 1*     NOT AVBL
PUU ALII*        N/A     59  59  99 N3G13       N/A
$$

HIZ015-042>044-052000-
LANAI-

CITY           SKY/WX    TMP DP  RH WIND       PRES   REMARKS
LANAI CITY     CLOUDY    73  68  84 NW7       30.17R
LANAI 1*       NOT AVBL
$$

HIZ016-052000-
KAHOOLAWE-

CITY           SKY/WX    TMP DP  RH WIND       PRES   REMARKS
KAHOOLAWE*     NOT AVBL
HAKIOAWA*      NOT AVBL
HONOKANAIA*    NOT AVBL
KANELOA*         N/A     73  66  78 NE18G33   30.16R
KEALIALALO*    NOT AVBL
LUA MAKIKA*    NOT AVBL
$$

HIZ017-018-022-045>050-052000-
MAUI-

CITY           SKY/WX    TMP DP  RH WIND       PRES   REMARKS
KAHULUI        MOSUNNY   83  66  56 NE17G28   30.11R
KAPALUA-W MAUI SUNNY     79  66  65 E20       30.12
HANA AIRPORT   NOT AVBL
HANA*          NOT AVBL
HALEAKALA SUMM   N/A     57   5  12 SE18        N/A  VSB 0
MAALAEA BAY*   NOT AVBL
HALEAKALA*     NOT AVBL
KAUPO GAP*     NOT AVBL
KULA 1*          N/A     60  38  44 N5          N/A
$$

HIZ023-026-051>054-052000-
BIG ISLAND OF HAWAII COAST AND LOWER SLOPES-

CITY           SKY/WX    TMP DP  RH WIND       PRES   REMARKS
KAILUA KONA    SUNNY     80  69  69 W7        30.08R
HILO           PTSUNNY   78  68  71 N7        30.14R
HONOKAA*       NOT AVBL
KAWAIHAE MWT*  NOT AVBL
KAWAIHAE*        N/A     79 N/A N/A W7        30.06S
SOUTH POINT*   NOT AVBL
UPOLU AIRPORT* NOT AVBL
KAMUELA*       NOT AVBL
HAKALAU*         N/A     59  49  70 NE3         N/A
KALOKO-HONOKO*   N/A     82  70  65 SW7       30.07R
PALI 2*          N/A     72  54  53 N18G26      N/A
KEALAKOMO*       N/A     82  63  51 N18G28      N/A
KAUPULEHU*     NOT AVBL
KAPAPALA*        N/A     75  60  58 SW6         N/A
LOWER KAHUKU*    N/A     66  55  68 E2          N/A
PUHE CS*         N/A     82  61  47 W3G9      30.03S
PUHO CS*         N/A     79  69  70 S2          N/A
PTA KEAMUKU*   NOT AVBL
WAIKOLOA*        N/A     81  59  47 NE18G30     N/A
$$

HIZ027-028-052000-
BIG ISLAND OF HAWAII INTERIOR AND SUMMMITS-

CITY           SKY/WX    TMP DP  RH WIND       PRES   REMARKS
BRADSHAW FIELD SUNNY     70  27  19 W6        30.41R
MK VISITOR CEN   N/A     59  14  17 SW8         N/A
MAUNA KEA*       N/A     45  -9  10 N13         N/A
MAUNA LOA*     NOT AVBL
MAUNA LOA 1*   NOT AVBL
PTA KIPUKA*      N/A     70  41  35 N6G12       N/A
PTA RANGE 17*  NOT AVBL
PTA WEST*        N/A     70  52  52 NW6G12      N/A
NENE CABIN*      N/A     64  45  48 S5G10       N/A
AHUMOA*        NOT AVBL
PTA PORTABLE*  NOT AVBL
PUU MALI*        N/A     64  23  20 NE3G14      N/A
$$

HIC003-052000-
NORTHWEST ISLANDS-

CITY           SKY/WX    TMP DP  RH WIND       PRES   REMARKS
MIDWAY ISLAND  MOSUNNY   81  73  78 E20       30.24R
MIDWAY NOS*    NOT AVBL
FRENCH FRIGATE NOT AVBL
$$

PHZ110>124-180-052000-
BUOY REPORTS

STATION/POSITION TIME  TEMP    WIND        PRES    WAVE   SWELL
                       AIR SEA DIR/SP/G            HT/PER HT/DIR
                 (UTC) (F)     (DEG/KT/KT) (MB)    (FT/S) (FT/D)
BUOY 51101       1910   78 80   70/ 16/ 19 1022.6
BUOY 51100       NOT AVBL
BUOY 51002       1910   78 78   70/ 17/ 21 1017.7
BUOY 51003       1910   76      50/ 16/ 21 1018.8
BUOY 51004       1910   78 78   70/ 14/ 17 1016.2
WAIMEA BAY#      1856      78                N/A     4/ 7
MOKAPU POINT#    1856      78                N/A     7/ 8   2/120
LANAI#           1857      79                N/A     3/ 9   2/180
BARBERS PT#      1900      79                N/A     2/10   2/180
PAUWELA#         NOT AVBL
HILO#            1915      79                N/A     7/ 8   2/110
KANEOHE BAY#     1856      78                N/A     6/ 8
KANEOHE BAY 2#   NOT AVBL
HANALEI#         1856      78                N/A     5/ 8
KAHULUI HARBOR   1900   78 78   60/ 14/ 19 1020.0
HONOLULU HARBOR  1900   76 79   40/  3/ 12 1020.6
PEARL HARBOR#    1900   77 78                N/A     4/ 9   2/160
KILO NALU        NOT AVBL
HILO HARBOR      1900   76 80  330/  6/  7 1019.5
MOKUOLOE         1836   77 79   90/  6/ 11 1020.6R
NAWILIWILI       1900   77 83   40/ 10/ 14 1021.7
WHOTS BUOY       NOT AVBL
BUOY 51028       NOT AVBL
$$

......................KEY........................................
  SKY/WX - SKY CONDITIONS/PRESENT WEATHER
  TMP    - TEMPERATURE IN FAHRENHEIT
  DWPT   - DEWPOINT IN FAHRENHEIT
  RH     - RELATIVE HUMIDITY IN PERCENT
  WIND   - DIRECTION AND SPEED /MPH FOR ISLANDS...KTS FOR BUOYS/
  PRES   - MEAN SEA LEVEL PRESSURE IN INCHES OF HG
  VSB    - VISIBILITY IN MILES
  HX     - HEAT INDEX
  WCI    - WIND CHILL INDEX
  VRB    - VARIABLE WIND DIRECTION
  N/A    - NOT AVAILABLE



USA.gov is the U.S. government's official web portal to all federal, state and local government web resources and services.